Location: Czekanka
(50.4925°N, 19.2643°E)
Time: 12:50:23
(UTC+00:00)

Cosmos 1607 - Pass Details

Date: 15 June 2024
Orbit: 910 x 992 km, 65.0° (Epoch: 16 July)

Event Time Altitude Azimuth Distance (km) Brightness Sun altitude
Rises 01:05:36 0° 319° (NW) 3,708 7.3 -9.8°
Reaches altitude 10° 01:08:12 10° 320° (NW) 2,750 6.6 -9.6°
Maximum altitude 01:14:41 88° 50° (NE) 981 4.1 -9.0°
Drops below altitude 10° 01:21:00 10° 140° (SE) 2,686 6.2 -8.4°
Sets 01:23:31 0° 141° (SE) 3,617 6.8 -8.2°
